owner,sensor,date,latitude,longitude,vertical_datum,sea_water_practical_salinity,qcFlag 
NERRS,ioos:station:NOAA.NERRS:gndpcwq:1,2015-05-01T00:00:00Z,30.3486,-88.4185,1.23,19.0,1111122 
NERRS,ioos:station:NOAA.NERRS:gndpcwq:1,2015-05-01T01:00:00Z,30.3486,-88.4185,1.23,18.4,1111122 
NERRS,ioos:station:NOAA.NERRS:gndpcwq:1,2015-05-01T02:00:00Z,30.3486,-88.4185,1.23,19.1,1111122 
NERRS,ioos:station:NOAA.NERRS:gndpcwq:1,2015-05-01T03:00:00Z,30.3486,-88.4185,1.24,19.2,1111122 
NERRS,ioos:station:NOAA.NERRS:gndpcwq:1,2015-05-01T04:00:00Z,30.3486,-88.4185,1.27,19.3,1111122 
NERRS,ioos:station:NOAA.NERRS:gndpcwq:1,2015-05-01T05:00:00Z,30.3486,-88.4185,1.28,19.2,1111122 
NERRS,ioos:station:NOAA.NERRS:gndpcwq:1,2015-05-01T06:00:00Z,30.3486,-88.4185,1.27,19.0,1111122 
NERRS,ioos:station:NOAA.NERRS:gndpcwq:1,2015-05-01T07:00:00Z,30.3486,-88.4185,1.25,18.8,1111122 
NERRS,ioos:station:NOAA.NERRS:gndpcwq:1,2015-05-01T08:00:00Z,30.3486,-88.4185,1.25,18.5,1111122 
NERRS,ioos:station:NOAA.NERRS:gndpcwq:1,2015-05-01T09:00:00Z,30.3486,-88.4185,1.27,18.0,1111122 
NERRS,ioos:station:NOAA.NERRS:gndpcwq:1,2015-05-01T10:00:00Z,30.3486,-88.4185,1.31,17.7,1111122 
NERRS,ioos:station:NOAA.NERRS:gndpcwq:1,2015-05-01T11:00:00Z,30.3486,-88.4185,1.36,17.8,1111122 
NERRS,ioos:station:NOAA.NERRS:gndpcwq:1,2015-05-01T12:00:00Z,30.3486,-88.4185,1.38,18.0,1111122 
NERRS,ioos:station:NOAA.NERRS:gndpcwq:1,2015-05-01T13:00:00Z,30.3486,-88.4185,1.4,18.2,1111122 
NERRS,ioos:station:NOAA.NERRS:gndpcwq:1,2015-05-01T14:00:00Z,30.3486,-88.4185,1.38,18.3,1111122 
NERRS,ioos:station:NOAA.NERRS:gndpcwq:1,2015-05-01T15:00:00Z,30.3486,-88.4185,1.4,18.4,1111122 
NERRS,ioos:station:NOAA.NERRS:gndpcwq:1,2015-05-01T16:00:00Z,30.3486,-88.4185,1.39,18.6,1111122 
NERRS,ioos:station:NOAA.NERRS:gndpcwq:1,2015-05-01T17:00:00Z,30.3486,-88.4185,1.39,18.7,1111122 
NERRS,ioos:station:NOAA.NERRS:gndpcwq:1,2015-05-01T18:00:00Z,30.3486,-88.4185,1.36,18.8,1111122 
NERRS,ioos:station:NOAA.NERRS:gndpcwq:1,2015-05-01T19:00:00Z,30.3486,-88.4185,1.31,19.0,1111122 
NERRS,ioos:station:NOAA.NERRS:gndpcwq:1,2015-05-01T20:00:00Z,30.3486,-88.4185,1.25,18.9,1111122 
NERRS,ioos:station:NOAA.NERRS:gndpcwq:1,2015-05-01T21:00:00Z,30.3486,-88.4185,1.22,18.8,1111122 
NERRS,ioos:station:NOAA.NERRS:gndpcwq:1,2015-05-01T22:00:00Z,30.3486,-88.4185,1.21,18.2,1111122 
NERRS,ioos:station:NOAA.NERRS:gndpcwq:1,2015-05-01T23:00:00Z,30.3486,-88.4185,1.22,18.2,1111122 
NERRS,ioos:station:NOAA.NERRS:gndpcwq:1,2015-05-02T00:00:00Z,30.3486,-88.4185,1.24,18.3,1111122 
NERRS,ioos:station:NOAA.NERRS:gndpcwq:1,2015-05-02T01:00:00Z,30.3486,-88.4185,1.27,18.2,1111122 
NERRS,ioos:station:NOAA.NERRS:gndpcwq:1,2015-05-02T02:00:00Z,30.3486,-88.4185,1.25,18.2,1111122 
NERRS,ioos:station:NOAA.NERRS:gndpcwq:1,2015-05-02T03:00:00Z,30.3486,-88.4185,1.25,18.2,1111122 
NERRS,ioos:station:NOAA.NERRS:gndpcwq:1,2015-05-02T04:00:00Z,30.3486,-88.4185,1.27,18.1,1111122 
NERRS,ioos:station:NOAA.NERRS:gndpcwq:1,2015-05-02T05:00:00Z,30.3486,-88.4185,1.3,18.0,1111122 
NERRS,ioos:station:NOAA.NERRS:gndpcwq:1,2015-05-02T06:00:00Z,30.3486,-88.4185,1.3,18.0,1111122 
NERRS,ioos:station:NOAA.NERRS:gndpcwq:1,2015-05-02T07:00:00Z,30.3486,-88.4185,1.32,18.0,1111122 
NERRS,ioos:station:NOAA.NERRS:gndpcwq:1,2015-05-02T08:00:00Z,30.3486,-88.4185,1.35,18.0,1111122 
NERRS,ioos:station:NOAA.NERRS:gndpcwq:1,2015-05-02T09:00:00Z,30.3486,-88.4185,1.41,18.2,1111122 
NERRS,ioos:station:NOAA.NERRS:gndpcwq:1,2015-05-02T10:00:00Z,30.3486,-88.4185,1.47,18.2,1111122 
NERRS,ioos:station:NOAA.NERRS:gndpcwq:1,2015-05-02T11:00:00Z,30.3486,-88.4185,1.52,18.3,1111122 
NERRS,ioos:station:NOAA.NERRS:gndpcwq:1,2015-05-02T12:00:00Z,30.3486,-88.4185,1.54,18.3,1111122 
NERRS,ioos:station:NOAA.NERRS:gndpcwq:1,2015-05-02T13:00:00Z,30.3486,-88.4185,1.55,18.3,1111122 
NERRS,ioos:station:NOAA.NERRS:gndpcwq:1,2015-05-02T14:00:00Z,30.3486,-88.4185,1.56,18.3,1111122 
NERRS,ioos:station:NOAA.NERRS:gndpcwq:1,2015-05-02T15:00:00Z,30.3486,-88.4185,1.55,18.2,1111122 
NERRS,ioos:station:NOAA.NERRS:gndpcwq:1,2015-05-02T16:00:00Z,30.3486,-88.4185,1.51,18.2,1111122 
NERRS,ioos:station:NOAA.NERRS:gndpcwq:1,2015-05-02T17:00:00Z,30.3486,-88.4185,1.46,18.4,1111122 
NERRS,ioos:station:NOAA.NERRS:gndpcwq:1,2015-05-02T18:00:00Z,30.3486,-88.4185,1.39,18.4,1111122 
NERRS,ioos:station:NOAA.NERRS:gndpcwq:1,2015-05-02T19:00:00Z,30.3486,-88.4185,1.32,18.2,1111122 
NERRS,ioos:station:NOAA.NERRS:gndpcwq:1,2015-05-02T20:00:00Z,30.3486,-88.4185,1.25,17.7,1111122 
NERRS,ioos:station:NOAA.NERRS:gndpcwq:1,2015-05-02T21:00:00Z,30.3486,-88.4185,1.22,17.6,1111122 
NERRS,ioos:station:NOAA.NERRS:gndpcwq:1,2015-05-02T22:00:00Z,30.3486,-88.4185,1.21,17.4,1111122 
NERRS,ioos:station:NOAA.NERRS:gndpcwq:1,2015-05-02T23:00:00Z,30.3486,-88.4185,1.22,17.4,1111122 
NERRS,ioos:station:NOAA.NERRS:gndpcwq:1,2015-05-03T00:00:00Z,30.3486,-88.4185,1.25,16.9,1111122 
NERRS,ioos:station:NOAA.NERRS:gndpcwq:1,2015-05-03T01:00:00Z,30.3486,-88.4185,1.27,16.9,1111122 
NERRS,ioos:station:NOAA.NERRS:gndpcwq:1,2015-05-03T02:00:00Z,30.3486,-88.4185,1.29,15.9,1111122 
NERRS,ioos:station:NOAA.NERRS:gndpcwq:1,2015-05-03T03:00:00Z,30.3486,-88.4185,1.32,16.1,1111122 
NERRS,ioos:station:NOAA.NERRS:gndpcwq:1,2015-05-03T04:00:00Z,30.3486,-88.4185,1.36,16.2,1111122 
NERRS,ioos:station:NOAA.NERRS:gndpcwq:1,2015-05-03T06:00:00Z,30.3486,-88.4185,1.41,16.3,1111122 
NERRS,ioos:station:NOAA.NERRS:gndpcwq:1,2015-05-03T07:00:00Z,30.3486,-88.4185,1.42,16.3,1111122 
NERRS,ioos:station:NOAA.NERRS:gndpcwq:1,2015-05-03T08:00:00Z,30.3486,-88.4185,1.43,16.3,1111122 
NERRS,ioos:station:NOAA.NERRS:gndpcwq:1,2015-05-03T09:00:00Z,30.3486,-88.4185,1.47,16.3,1111122 
NERRS,ioos:station:NOAA.NERRS:gndpcwq:1,2015-05-03T10:00:00Z,30.3486,-88.4185,1.51,16.1,1111122 
NERRS,ioos:station:NOAA.NERRS:gndpcwq:1,2015-05-03T11:00:00Z,30.3486,-88.4185,1.56,16.3,1111122 
NERRS,ioos:station:NOAA.NERRS:gndpcwq:1,2015-05-03T12:00:00Z,30.3486,-88.4185,1.6,16.4,1111122 
NERRS,ioos:station:NOAA.NERRS:gndpcwq:1,2015-05-03T13:00:00Z,30.3486,-88.4185,1.62,16.5,1111122 
NERRS,ioos:station:NOAA.NERRS:gndpcwq:1,2015-05-03T14:00:00Z,30.3486,-88.4185,1.63,16.5,1111122 
NERRS,ioos:station:NOAA.NERRS:gndpcwq:1,2015-05-03T15:00:00Z,30.3486,-88.4185,1.62,16.5,1111122 
NERRS,ioos:station:NOAA.NERRS:gndpcwq:1,2015-05-03T16:00:00Z,30.3486,-88.4185,1.6,16.5,1111122 
NERRS,ioos:station:NOAA.NERRS:gndpcwq:1,2015-05-03T17:00:00Z,30.3486,-88.4185,1.56,16.4,1111122 
NERRS,ioos:station:NOAA.NERRS:gndpcwq:1,2015-05-03T18:00:00Z,30.3486,-88.4185,1.52,16.2,1111122 
NERRS,ioos:station:NOAA.NERRS:gndpcwq:1,2015-05-03T19:00:00Z,30.3486,-88.4185,1.44,15.6,1111122 
NERRS,ioos:station:NOAA.NERRS:gndpcwq:1,2015-05-03T20:00:00Z,30.3486,-88.4185,1.34,15.1,1111122 
NERRS,ioos:station:NOAA.NERRS:gndpcwq:1,2015-05-03T21:00:00Z,30.3486,-88.4185,1.29,15.0,1111122 
NERRS,ioos:station:NOAA.NERRS:gndpcwq:1,2015-05-03T22:00:00Z,30.3486,-88.4185,1.24,15.0,1111122 
NERRS,ioos:station:NOAA.NERRS:gndpcwq:1,2015-05-03T23:00:00Z,30.3486,-88.4185,1.22,15.0,1111122 
NERRS,ioos:station:NOAA.NERRS:gndpcwq:1,2015-05-04T00:00:00Z,30.3486,-88.4185,1.26,14.9,1111122 
NERRS,ioos:station:NOAA.NERRS:gndpcwq:1,2015-05-04T01:00:00Z,30.3486,-88.4185,1.3,14.8,1111122 
NERRS,ioos:station:NOAA.NERRS:gndpcwq:1,2015-05-04T02:00:00Z,30.3486,-88.4185,1.34,14.2,1111122 
NERRS,ioos:station:NOAA.NERRS:gndpcwq:1,2015-05-04T03:00:00Z,30.3486,-88.4185,1.38,13.5,1111122 
NERRS,ioos:station:NOAA.NERRS:gndpcwq:1,2015-05-04T04:00:00Z,30.3486,-88.4185,1.48,12.6,1111122 
NERRS,ioos:station:NOAA.NERRS:gndpcwq:1,2015-05-04T05:00:00Z,30.3486,-88.4185,1.52,12.2,1111122 
NERRS,ioos:station:NOAA.NERRS:gndpcwq:1,2015-05-04T06:00:00Z,30.3486,-88.4185,1.53,12.2,1111122 
NERRS,ioos:station:NOAA.NERRS:gndpcwq:1,2015-05-04T07:00:00Z,30.3486,-88.4185,1.55,11.5,1111122 
NERRS,ioos:station:NOAA.NERRS:gndpcwq:1,2015-05-04T08:00:00Z,30.3486,-88.4185,1.56,11.5,1111122 
NERRS,ioos:station:NOAA.NERRS:gndpcwq:1,2015-05-04T09:00:00Z,30.3486,-88.4185,1.58,11.4,1111122 
NERRS,ioos:station:NOAA.NERRS:gndpcwq:1,2015-05-04T10:00:00Z,30.3486,-88.4185,1.6,11.4,1111122 
NERRS,ioos:station:NOAA.NERRS:gndpcwq:1,2015-05-04T11:00:00Z,30.3486,-88.4185,1.67,11.3,1111122 
NERRS,ioos:station:NOAA.NERRS:gndpcwq:1,2015-05-04T12:00:00Z,30.3486,-88.4185,1.71,11.3,1111122 
NERRS,ioos:station:NOAA.NERRS:gndpcwq:1,2015-05-04T13:00:00Z,30.3486,-88.4185,1.8,11.2,1111122 
NERRS,ioos:station:NOAA.NERRS:gndpcwq:1,2015-05-04T14:00:00Z,30.3486,-88.4185,1.79,11.2,1111122 
NERRS,ioos:station:NOAA.NERRS:gndpcwq:1,2015-05-04T15:00:00Z,30.3486,-88.4185,1.79,11.0,1111122 
NERRS,ioos:station:NOAA.NERRS:gndpcwq:1,2015-05-04T16:00:00Z,30.3486,-88.4185,1.77,11.0,1111122 
NERRS,ioos:station:NOAA.NERRS:gndpcwq:1,2015-05-04T17:00:00Z,30.3486,-88.4185,1.75,10.8,1111122 
NERRS,ioos:station:NOAA.NERRS:gndpcwq:1,2015-05-04T18:00:00Z,30.3486,-88.4185,1.72,10.5,1111122 
NERRS,ioos:station:NOAA.NERRS:gndpcwq:1,2015-05-04T19:00:00Z,30.3486,-88.4185,1.65,10.3,1111122 
NERRS,ioos:station:NOAA.NERRS:gndpcwq:1,2015-05-04T20:00:00Z,30.3486,-88.4185,1.58,10.4,1111122 
NERRS,ioos:station:NOAA.NERRS:gndpcwq:1,2015-05-04T21:00:00Z,30.3486,-88.4185,1.49,10.4,1111122 
NERRS,ioos:station:NOAA.NERRS:gndpcwq:1,2015-05-04T22:00:00Z,30.3486,-88.4185,1.39,10.6,1111122 
NERRS,ioos:station:NOAA.NERRS:gndpcwq:1,2015-05-04T23:00:00Z,30.3486,-88.4185,1.36,10.3,1111122 
NERRS,ioos:station:NOAA.NERRS:gndpcwq:1,2015-05-05T00:00:00Z,30.3486,-88.4185,1.34,10.2,1111122 
NERRS,ioos:station:NOAA.NERRS:gndpcwq:1,2015-05-05T01:00:00Z,30.3486,-88.4185,1.41,10.2,1111122 
NERRS,ioos:station:NOAA.NERRS:gndpcwq:1,2015-05-05T02:00:00Z,30.3486,-88.4185,1.43,10.2,1111122 
NERRS,ioos:station:NOAA.NERRS:gndpcwq:1,2015-05-05T03:00:00Z,30.3486,-88.4185,1.44,10.5,1111122 
NERRS,ioos:station:NOAA.NERRS:gndpcwq:1,2015-05-05T04:00:00Z,30.3486,-88.4185,1.46,11.1,1111122 
NERRS,ioos:station:NOAA.NERRS:gndpcwq:1,2015-05-05T05:00:00Z,30.3486,-88.4185,1.47,10.8,1111122 
NERRS,ioos:station:NOAA.NERRS:gndpcwq:1,2015-05-05T06:00:00Z,30.3486,-88.4185,1.49,10.7,1111122 
NERRS,ioos:station:NOAA.NERRS:gndpcwq:1,2015-05-05T07:00:00Z,30.3486,-88.4185,1.53,11.0,1111122 
NERRS,ioos:station:NOAA.NERRS:gndpcwq:1,2015-05-05T08:00:00Z,30.3486,-88.4185,1.54,11.3,1111122 
NERRS,ioos:station:NOAA.NERRS:gndpcwq:1,2015-05-05T09:00:00Z,30.3486,-88.4185,1.58,11.1,1111122 
NERRS,ioos:station:NOAA.NERRS:gndpcwq:1,2015-05-05T10:00:00Z,30.3486,-88.4185,1.59,11.1,1111122 
NERRS,ioos:station:NOAA.NERRS:gndpcwq:1,2015-05-05T11:00:00Z,30.3486,-88.4185,1.66,10.9,1111122 
NERRS,ioos:station:NOAA.NERRS:gndpcwq:1,2015-05-05T12:00:00Z,30.3486,-88.4185,1.7,10.3,1111122 
NERRS,ioos:station:NOAA.NERRS:gndpcwq:1,2015-05-05T13:00:00Z,30.3486,-88.4185,1.75,9.8,1111122 
NERRS,ioos:station:NOAA.NERRS:gndpcwq:1,2015-05-05T14:00:00Z,30.3486,-88.4185,1.81,9.3,1111122 
NERRS,ioos:station:NOAA.NERRS:gndpcwq:1,2015-05-05T15:00:00Z,30.3486,-88.4185,1.85,9.8,1111122 
NERRS,ioos:station:NOAA.NERRS:gndpcwq:1,2015-05-05T16:00:00Z,30.3486,-88.4185,1.87,11.3,1111122 
NERRS,ioos:station:NOAA.NERRS:gndpcwq:1,2015-05-05T17:00:00Z,30.3486,-88.4185,1.84,10.7,1111122 
NERRS,ioos:station:NOAA.NERRS:gndpcwq:1,2015-05-05T18:00:00Z,30.3486,-88.4185,1.84,9.4,1111122 
NERRS,ioos:station:NOAA.NERRS:gndpcwq:1,2015-05-05T19:00:00Z,30.3486,-88.4185,1.79,8.9,1111122 
NERRS,ioos:station:NOAA.NERRS:gndpcwq:1,2015-05-05T20:00:00Z,30.3486,-88.4185,1.67,8.6,1111122 
NERRS,ioos:station:NOAA.NERRS:gndpcwq:1,2015-05-05T21:00:00Z,30.3486,-88.4185,1.58,8.6,1111122 
NERRS,ioos:station:NOAA.NERRS:gndpcwq:1,2015-05-05T22:00:00Z,30.3486,-88.4185,1.5,9.7,1111122 
NERRS,ioos:station:NOAA.NERRS:gndpcwq:1,2015-05-05T23:00:00Z,30.3486,-88.4185,1.42,10.3,1111122 
NERRS,ioos:station:NOAA.NERRS:gndpcwq:1,2015-05-06T00:00:00Z,30.3486,-88.4185,1.39,10.5,1111122 
NERRS,ioos:station:NOAA.NERRS:gndpcwq:1,2015-05-06T01:00:00Z,30.3486,-88.4185,1.4,11.0,1111122 
NERRS,ioos:station:NOAA.NERRS:gndpcwq:1,2015-05-06T02:00:00Z,30.3486,-88.4185,1.4,11.3,1111122 
NERRS,ioos:station:NOAA.NERRS:gndpcwq:1,2015-05-06T03:00:00Z,30.3486,-88.4185,1.43,11.5,1111122 
NERRS,ioos:station:NOAA.NERRS:gndpcwq:1,2015-05-06T04:00:00Z,30.3486,-88.4185,1.44,11.5,1111122 
NERRS,ioos:station:NOAA.NERRS:gndpcwq:1,2015-05-06T05:00:00Z,30.3486,-88.4185,1.44,11.3,1111122 
NERRS,ioos:station:NOAA.NERRS:gndpcwq:1,2015-05-06T06:00:00Z,30.3486,-88.4185,1.46,11.2,1111122 
NERRS,ioos:station:NOAA.NERRS:gndpcwq:1,2015-05-06T07:00:00Z,30.3486,-88.4185,1.51,10.8,1111122 
NERRS,ioos:station:NOAA.NERRS:gndpcwq:1,2015-05-06T08:00:00Z,30.3486,-88.4185,1.54,10.7,1111122 
NERRS,ioos:station:NOAA.NERRS:gndpcwq:1,2015-05-06T09:00:00Z,30.3486,-88.4185,1.55,10.7,1111122 
NERRS,ioos:station:NOAA.NERRS:gndpcwq:1,2015-05-06T10:00:00Z,30.3486,-88.4185,1.6,10.6,1111122 
NERRS,ioos:station:NOAA.NERRS:gndpcwq:1,2015-05-06T11:00:00Z,30.3486,-88.4185,1.65,10.1,1111122 
NERRS,ioos:station:NOAA.NERRS:gndpcwq:1,2015-05-06T12:00:00Z,30.3486,-88.4185,1.71,9.7,1111122 
NERRS,ioos:station:NOAA.NERRS:gndpcwq:1,2015-05-06T13:00:00Z,30.3486,-88.4185,1.77,9.4,1111122 
NERRS,ioos:station:NOAA.NERRS:gndpcwq:1,2015-05-06T14:00:00Z,30.3486,-88.4185,1.83,9.5,1111122 
NERRS,ioos:station:NOAA.NERRS:gndpcwq:1,2015-05-06T15:00:00Z,30.3486,-88.4185,1.87,9.7,1111122 
NERRS,ioos:station:NOAA.NERRS:gndpcwq:1,2015-05-06T16:00:00Z,30.3486,-88.4185,1.88,9.5,1111122 
NERRS,ioos:station:NOAA.NERRS:gndpcwq:1,2015-05-06T17:00:00Z,30.3486,-88.4185,1.85,9.8,1111122 
NERRS,ioos:station:NOAA.NERRS:gndpcwq:1,2015-05-06T18:00:00Z,30.3486,-88.4185,1.8,9.7,1111122 
NERRS,ioos:station:NOAA.NERRS:gndpcwq:1,2015-05-06T19:00:00Z,30.3486,-88.4185,1.76,9.3,1111122 
NERRS,ioos:station:NOAA.NERRS:gndpcwq:1,2015-05-06T20:00:00Z,30.3486,-88.4185,1.7,8.7,1111122 
NERRS,ioos:station:NOAA.NERRS:gndpcwq:1,2015-05-06T21:00:00Z,30.3486,-88.4185,1.59,9.0,1111122 
NERRS,ioos:station:NOAA.NERRS:gndpcwq:1,2015-05-06T22:00:00Z,30.3486,-88.4185,1.5,9.3,1111122 
NERRS,ioos:station:NOAA.NERRS:gndpcwq:1,2015-05-06T23:00:00Z,30.3486,-88.4185,1.42,9.6,1111122 
NERRS,ioos:station:NOAA.NERRS:gndpcwq:1,2015-05-07T00:00:00Z,30.3486,-88.4185,1.36,9.7,1111122 
NERRS,ioos:station:NOAA.NERRS:gndpcwq:1,2015-05-07T01:00:00Z,30.3486,-88.4185,1.34,9.9,1111122 
NERRS,ioos:station:NOAA.NERRS:gndpcwq:1,2015-05-07T02:00:00Z,30.3486,-88.4185,1.34,10.5,1111122 
NERRS,ioos:station:NOAA.NERRS:gndpcwq:1,2015-05-07T03:00:00Z,30.3486,-88.4185,1.33,10.6,1111122 
NERRS,ioos:station:NOAA.NERRS:gndpcwq:1,2015-05-07T04:00:00Z,30.3486,-88.4185,1.35,11.2,1111122 
NERRS,ioos:station:NOAA.NERRS:gndpcwq:1,2015-05-07T05:00:00Z,30.3486,-88.4185,1.39,11.1,1111122 
NERRS,ioos:station:NOAA.NERRS:gndpcwq:1,2015-05-07T06:00:00Z,30.3486,-88.4185,1.41,11.1,1111122 
NERRS,ioos:station:NOAA.NERRS:gndpcwq:1,2015-05-07T07:00:00Z,30.3486,-88.4185,1.45,11.1,1111122 
NERRS,ioos:station:NOAA.NERRS:gndpcwq:1,2015-05-07T08:00:00Z,30.3486,-88.4185,1.48,11.0,1111122 
NERRS,ioos:station:NOAA.NERRS:gndpcwq:1,2015-05-07T09:00:00Z,30.3486,-88.4185,1.52,10.9,1111122 
NERRS,ioos:station:NOAA.NERRS:gndpcwq:1,2015-05-07T10:00:00Z,30.3486,-88.4185,1.56,10.7,1111122 
NERRS,ioos:station:NOAA.NERRS:gndpcwq:1,2015-05-07T11:00:00Z,30.3486,-88.4185,1.61,10.6,1111122 
NERRS,ioos:station:NOAA.NERRS:gndpcwq:1,2015-05-07T12:00:00Z,30.3486,-88.4185,1.66,11.0,1111122 
NERRS,ioos:station:NOAA.NERRS:gndpcwq:1,2015-05-07T13:00:00Z,30.3486,-88.4185,1.73,11.2,1111122 
NERRS,ioos:station:NOAA.NERRS:gndpcwq:1,2015-05-07T14:00:00Z,30.3486,-88.4185,1.8,11.1,1111122 
NERRS,ioos:station:NOAA.NERRS:gndpcwq:1,2015-05-07T15:00:00Z,30.3486,-88.4185,1.85,11.0,1111122 
NERRS,ioos:station:NOAA.NERRS:gndpcwq:1,2015-05-07T16:00:00Z,30.3486,-88.4185,1.85,11.0,1111122 
NERRS,ioos:station:NOAA.NERRS:gndpcwq:1,2015-05-07T17:00:00Z,30.3486,-88.4185,1.8,10.9,1111122 
NERRS,ioos:station:NOAA.NERRS:gndpcwq:1,2015-05-07T18:00:00Z,30.3486,-88.4185,1.75,10.6,1111122 
NERRS,ioos:station:NOAA.NERRS:gndpcwq:1,2015-05-07T19:00:00Z,30.3486,-88.4185,1.7,10.5,1111122 
NERRS,ioos:station:NOAA.NERRS:gndpcwq:1,2015-05-07T20:00:00Z,30.3486,-88.4185,1.63,10.3,1111122 
NERRS,ioos:station:NOAA.NERRS:gndpcwq:1,2015-05-07T21:00:00Z,30.3486,-88.4185,1.57,9.8,1111122 
NERRS,ioos:station:NOAA.NERRS:gndpcwq:1,2015-05-07T22:00:00Z,30.3486,-88.4185,1.47,9.3,1111122 
NERRS,ioos:station:NOAA.NERRS:gndpcwq:1,2015-05-07T23:00:00Z,30.3486,-88.4185,1.38,9.5,1111122 
NERRS,ioos:station:NOAA.NERRS:gndpcwq:1,2015-05-08T00:00:00Z,30.3486,-88.4185,1.3,9.6,1111122 
NERRS,ioos:station:NOAA.NERRS:gndpcwq:1,2015-05-08T01:00:00Z,30.3486,-88.4185,1.25,10.3,1111122 
NERRS,ioos:station:NOAA.NERRS:gndpcwq:1,2015-05-08T02:00:00Z,30.3486,-88.4185,1.23,10.0,1111122 
NERRS,ioos:station:NOAA.NERRS:gndpcwq:1,2015-05-08T03:00:00Z,30.3486,-88.4185,1.24,10.1,1111122 
NERRS,ioos:station:NOAA.NERRS:gndpcwq:1,2015-05-08T04:00:00Z,30.3486,-88.4185,1.24,10.2,1111122 
NERRS,ioos:station:NOAA.NERRS:gndpcwq:1,2015-05-08T05:00:00Z,30.3486,-88.4185,1.28,10.3,1111122 
NERRS,ioos:station:NOAA.NERRS:gndpcwq:1,2015-05-08T06:00:00Z,30.3486,-88.4185,1.3,10.3,1111122 
NERRS,ioos:station:NOAA.NERRS:gndpcwq:1,2015-05-08T07:00:00Z,30.3486,-88.4185,1.32,10.4,1111122 
NERRS,ioos:station:NOAA.NERRS:gndpcwq:1,2015-05-08T08:00:00Z,30.3486,-88.4185,1.37,10.4,1111122 
NERRS,ioos:station:NOAA.NERRS:gndpcwq:1,2015-05-08T09:00:00Z,30.3486,-88.4185,1.43,10.5,1111122 
NERRS,ioos:station:NOAA.NERRS:gndpcwq:1,2015-05-08T10:00:00Z,30.3486,-88.4185,1.48,10.9,1111122 
NERRS,ioos:station:NOAA.NERRS:gndpcwq:1,2015-05-08T11:00:00Z,30.3486,-88.4185,1.53,11.1,1111122 
NERRS,ioos:station:NOAA.NERRS:gndpcwq:1,2015-05-08T12:00:00Z,30.3486,-88.4185,1.57,11.1,1111122 
NERRS,ioos:station:NOAA.NERRS:gndpcwq:1,2015-05-08T13:00:00Z,30.3486,-88.4185,1.64,10.9,1111122 
NERRS,ioos:station:NOAA.NERRS:gndpcwq:1,2015-05-08T14:00:00Z,30.3486,-88.4185,1.71,10.9,1111122 
NERRS,ioos:station:NOAA.NERRS:gndpcwq:1,2015-05-08T15:00:00Z,30.3486,-88.4185,1.78,10.7,1111122 
NERRS,ioos:station:NOAA.NERRS:gndpcwq:1,2015-05-08T16:00:00Z,30.3486,-88.4185,1.8,10.9,1111122 
NERRS,ioos:station:NOAA.NERRS:gndpcwq:1,2015-05-08T17:00:00Z,30.3486,-88.4185,1.79,11.2,1111122 
NERRS,ioos:station:NOAA.NERRS:gndpcwq:1,2015-05-08T18:00:00Z,30.3486,-88.4185,1.76,11.5,1111122 
NERRS,ioos:station:NOAA.NERRS:gndpcwq:1,2015-05-08T19:00:00Z,30.3486,-88.4185,1.74,11.3,1111122 
NERRS,ioos:station:NOAA.NERRS:gndpcwq:1,2015-05-08T20:00:00Z,30.3486,-88.4185,1.69,11.1,1111122 
NERRS,ioos:station:NOAA.NERRS:gndpcwq:1,2015-05-08T21:00:00Z,30.3486,-88.4185,1.62,11.1,1111122 
NERRS,ioos:station:NOAA.NERRS:gndpcwq:1,2015-05-08T22:00:00Z,30.3486,-88.4185,1.54,10.8,1111122 
NERRS,ioos:station:NOAA.NERRS:gndpcwq:1,2015-05-08T23:00:00Z,30.3486,-88.4185,1.46,10.5,1111122 
NERRS,ioos:station:NOAA.NERRS:gndpcwq:1,2015-05-09T00:00:00Z,30.3486,-88.4185,1.36,10.5,1111122 
NERRS,ioos:station:NOAA.NERRS:gndpcwq:1,2015-05-09T01:00:00Z,30.3486,-88.4185,1.32,10.3,1111122 
NERRS,ioos:station:NOAA.NERRS:gndpcwq:1,2015-05-09T02:00:00Z,30.3486,-88.4185,1.28,10.6,1111122 
NERRS,ioos:station:NOAA.NERRS:gndpcwq:1,2015-05-09T03:00:00Z,30.3486,-88.4185,1.27,10.5,1111122 
NERRS,ioos:station:NOAA.NERRS:gndpcwq:1,2015-05-09T04:00:00Z,30.3486,-88.4185,1.26,10.5,1111122 
NERRS,ioos:station:NOAA.NERRS:gndpcwq:1,2015-05-09T05:00:00Z,30.3486,-88.4185,1.25,10.6,1111122 
NERRS,ioos:station:NOAA.NERRS:gndpcwq:1,2015-05-09T06:00:00Z,30.3486,-88.4185,1.25,10.6,1111122 
NERRS,ioos:station:NOAA.NERRS:gndpcwq:1,2015-05-09T07:00:00Z,30.3486,-88.4185,1.27,10.6,1111122 
NERRS,ioos:station:NOAA.NERRS:gndpcwq:1,2015-05-09T08:00:00Z,30.3486,-88.4185,1.32,10.5,1111122 
NERRS,ioos:station:NOAA.NERRS:gndpcwq:1,2015-05-09T09:00:00Z,30.3486,-88.4185,1.39,10.6,1111122 
NERRS,ioos:station:NOAA.NERRS:gndpcwq:1,2015-05-09T10:00:00Z,30.3486,-88.4185,1.42,10.5,1111122 
NERRS,ioos:station:NOAA.NERRS:gndpcwq:1,2015-05-09T11:00:00Z,30.3486,-88.4185,1.46,10.6,1111122 
NERRS,ioos:station:NOAA.NERRS:gndpcwq:1,2015-05-09T12:00:00Z,30.3486,-88.4185,1.51,10.7,1111122 
NERRS,ioos:station:NOAA.NERRS:gndpcwq:1,2015-05-09T13:00:00Z,30.3486,-88.4185,1.57,10.8,1111122 
NERRS,ioos:station:NOAA.NERRS:gndpcwq:1,2015-05-09T14:00:00Z,30.3486,-88.4185,1.63,10.7,1111122 
NERRS,ioos:station:NOAA.NERRS:gndpcwq:1,2015-05-09T15:00:00Z,30.3486,-88.4185,1.65,10.8,1111122 
NERRS,ioos:station:NOAA.NERRS:gndpcwq:1,2015-05-09T16:00:00Z,30.3486,-88.4185,1.68,11.0,1111122 
NERRS,ioos:station:NOAA.NERRS:gndpcwq:1,2015-05-09T17:00:00Z,30.3486,-88.4185,1.68,10.9,1111122 
NERRS,ioos:station:NOAA.NERRS:gndpcwq:1,2015-05-09T18:00:00Z,30.3486,-88.4185,1.65,11.0,1111122 
NERRS,ioos:station:NOAA.NERRS:gndpcwq:1,2015-05-09T19:00:00Z,30.3486,-88.4185,1.62,11.1,1111122 
NERRS,ioos:station:NOAA.NERRS:gndpcwq:1,2015-05-09T20:00:00Z,30.3486,-88.4185,1.58,11.0,1111122 
NERRS,ioos:station:NOAA.NERRS:gndpcwq:1,2015-05-09T21:00:00Z,30.3486,-88.4185,1.53,10.8,1111122 
NERRS,ioos:station:NOAA.NERRS:gndpcwq:1,2015-05-09T22:00:00Z,30.3486,-88.4185,1.49,10.6,1111122 
NERRS,ioos:station:NOAA.NERRS:gndpcwq:1,2015-05-09T23:00:00Z,30.3486,-88.4185,1.44,10.5,1111122 
NERRS,ioos:station:NOAA.NERRS:gndpcwq:1,2015-05-10T00:00:00Z,30.3486,-88.4185,1.36,10.6,1111122 
NERRS,ioos:station:NOAA.NERRS:gndpcwq:1,2015-05-10T01:00:00Z,30.3486,-88.4185,1.3,10.5,1111122 
NERRS,ioos:station:NOAA.NERRS:gndpcwq:1,2015-05-10T02:00:00Z,30.3486,-88.4185,1.23,10.5,1111122 
NERRS,ioos:station:NOAA.NERRS:gndpcwq:1,2015-05-10T03:00:00Z,30.3486,-88.4185,1.23,10.7,1111122 
NERRS,ioos:station:NOAA.NERRS:gndpcwq:1,2015-05-10T04:00:00Z,30.3486,-88.4185,1.23,10.6,1111122 
NERRS,ioos:station:NOAA.NERRS:gndpcwq:1,2015-05-10T05:00:00Z,30.3486,-88.4185,1.23,10.8,1111122 
NERRS,ioos:station:NOAA.NERRS:gndpcwq:1,2015-05-10T06:00:00Z,30.3486,-88.4185,1.25,10.4,1111122 
NERRS,ioos:station:NOAA.NERRS:gndpcwq:1,2015-05-10T07:00:00Z,30.3486,-88.4185,1.28,10.6,1111122 
NERRS,ioos:station:NOAA.NERRS:gndpcwq:1,2015-05-10T08:00:00Z,30.3486,-88.4185,1.3,10.4,1111122 
NERRS,ioos:station:NOAA.NERRS:gndpcwq:1,2015-05-10T09:00:00Z,30.3486,-88.4185,1.33,10.5,1111122 
NERRS,ioos:station:NOAA.NERRS:gndpcwq:1,2015-05-10T10:00:00Z,30.3486,-88.4185,1.37,10.5,1111122 
NERRS,ioos:station:NOAA.NERRS:gndpcwq:1,2015-05-10T11:00:00Z,30.3486,-88.4185,1.44,10.8,1111122 
NERRS,ioos:station:NOAA.NERRS:gndpcwq:1,2015-05-10T12:00:00Z,30.3486,-88.4185,1.51,10.6,1111122 
NERRS,ioos:station:NOAA.NERRS:gndpcwq:1,2015-05-10T13:00:00Z,30.3486,-88.4185,1.58,10.7,1111122 
NERRS,ioos:station:NOAA.NERRS:gndpcwq:1,2015-05-10T14:00:00Z,30.3486,-88.4185,1.61,10.8,1111122 
NERRS,ioos:station:NOAA.NERRS:gndpcwq:1,2015-05-10T15:00:00Z,30.3486,-88.4185,1.64,10.6,1111122 
NERRS,ioos:station:NOAA.NERRS:gndpcwq:1,2015-05-10T16:00:00Z,30.3486,-88.4185,1.68,10.7,1111122 
NERRS,ioos:station:NOAA.NERRS:gndpcwq:1,2015-05-10T17:00:00Z,30.3486,-88.4185,1.71,10.9,1111122 
NERRS,ioos:station:NOAA.NERRS:gndpcwq:1,2015-05-10T18:00:00Z,30.3486,-88.4185,1.72,11.0,1111122 
NERRS,ioos:station:NOAA.NERRS:gndpcwq:1,2015-05-10T19:00:00Z,30.3486,-88.4185,1.69,11.2,1111122 
NERRS,ioos:station:NOAA.NERRS:gndpcwq:1,2015-05-10T20:00:00Z,30.3486,-88.4185,1.64,11.4,1111122 
NERRS,ioos:station:NOAA.NERRS:gndpcwq:1,2015-05-10T21:00:00Z,30.3486,-88.4185,1.62,11.5,1111122 
NERRS,ioos:station:NOAA.NERRS:gndpcwq:1,2015-05-10T22:00:00Z,30.3486,-88.4185,1.59,11.4,1111122 
NERRS,ioos:station:NOAA.NERRS:gndpcwq:1,2015-05-10T23:00:00Z,30.3486,-88.4185,1.54,11.9,1111122 
NERRS,ioos:station:NOAA.NERRS:gndpcwq:1,2015-05-11T00:00:00Z,30.3486,-88.4185,1.48,12.0,1111122 
NERRS,ioos:station:NOAA.NERRS:gndpcwq:1,2015-05-11T01:00:00Z,30.3486,-88.4185,1.43,12.0,1111122 
NERRS,ioos:station:NOAA.NERRS:gndpcwq:1,2015-05-11T02:00:00Z,30.3486,-88.4185,1.39,11.9,1111122 
NERRS,ioos:station:NOAA.NERRS:gndpcwq:1,2015-05-11T03:00:00Z,30.3486,-88.4185,1.34,12.1,1111122 
NERRS,ioos:station:NOAA.NERRS:gndpcwq:1,2015-05-11T04:00:00Z,30.3486,-88.4185,1.3,12.0,1111122 
NERRS,ioos:station:NOAA.NERRS:gndpcwq:1,2015-05-11T06:00:00Z,30.3486,-88.4185,1.31,12.2,1111122 
NERRS,ioos:station:NOAA.NERRS:gndpcwq:1,2015-05-11T07:00:00Z,30.3486,-88.4185,1.31,12.4,1111122 
NERRS,ioos:station:NOAA.NERRS:gndpcwq:1,2015-05-11T08:00:00Z,30.3486,-88.4185,1.37,12.7,1111122 